Time,TemperatureF,DewpointF,PressureIn,WindDirection,WindDirectionDegrees,WindSpeedMPH,WindSpeedGustMPH,Humidity,HourlyPrecipIn,Conditions,Clouds,dailyrainin,SolarRadiationWatts/m^2,SoftwareType,DateUTC
2013-01-21 00:03:00,16.7,8.9,30.18,WNW,291,2.0,2.0,71,0.00,,,0.00,0,Wunderground v.1.15,2013-01-21 05:03:00,
2013-01-21 00:04:00,16.7,9.0,30.18,WNW,291,1.0,-999.0,71,-99.99,,,0.00,,weatherlink.com 1.10,2013-01-21 05:04:00,
2013-01-21 00:06:00,16.7,8.9,30.17,West,275,1.0,2.0,71,0.00,,,0.00,0,Wunderground v.1.15,2013-01-21 05:06:00,
2013-01-21 00:07:00,16.6,8.8,30.17,WSW,252,1.0,3.0,71,0.00,,,0.00,0,Wunderground v.1.15,2013-01-21 05:07:00,
2013-01-21 00:13:00,16.6,8.8,30.17,West,279,2.0,2.0,71,0.00,,,0.00,0,Wunderground v.1.15,2013-01-21 05:13:00,
2013-01-21 00:19:00,16.6,8.8,30.18,WSW,256,2.0,4.0,71,0.00,,,0.00,0,Wunderground v.1.15,2013-01-21 05:19:00,
2013-01-21 00:24:00,16.6,8.8,30.17,West,267,2.0,3.0,71,0.00,,,0.00,0,Wunderground v.1.15,2013-01-21 05:24:00,
2013-01-21 00:30:00,16.6,8.8,30.17,WSW,238,2.0,2.0,71,0.00,,,0.00,0,Wunderground v.1.15,2013-01-21 05:30:00,
2013-01-21 00:36:00,16.7,8.9,30.16,West,264,1.0,2.0,71,0.00,,,0.00,0,Wunderground v.1.15,2013-01-21 05:36:00,
2013-01-21 00:41:00,16.7,8.9,30.16,West,281,2.0,4.0,71,0.00,,,0.00,0,Wunderground v.1.15,2013-01-21 05:41:00,
2013-01-21 00:48:00,16.7,8.9,30.16,West,267,2.0,4.0,71,0.00,,,0.00,0,Wunderground v.1.15,2013-01-21 05:48:00,
2013-01-21 00:53:00,16.8,9.0,30.15,West,259,1.0,3.0,71,0.00,,,0.00,0,Wunderground v.1.15,2013-01-21 05:53:00,
2013-01-21 00:58:00,16.8,9.0,30.15,WSW,252,2.0,3.0,71,0.00,,,0.00,0,Wunderground v.1.15,2013-01-21 05:58:00,
2013-01-21 01:04:00,16.9,8.8,30.15,WSW,248,3.0,5.0,70,0.00,,,0.00,0,Wunderground v.1.15,2013-01-21 06:04:00,
2013-01-21 01:10:00,17.0,8.9,30.15,WSW,238,2.0,2.0,70,0.00,,,0.00,0,Wunderground v.1.15,2013-01-21 06:10:00,
2013-01-21 01:15:00,17.0,8.9,30.15,WSW,250,2.0,3.0,70,0.00,,,0.00,0,Wunderground v.1.15,2013-01-21 06:15:00,
2013-01-21 01:20:00,17.1,8.7,30.15,WSW,248,3.0,5.0,69,0.00,,,0.00,0,Wunderground v.1.15,2013-01-21 06:20:00,
2013-01-21 01:26:00,17.1,8.3,30.15,WSW,245,3.0,5.0,68,0.00,,,0.00,0,Wunderground v.1.15,2013-01-21 06:26:00,
2013-01-21 01:32:00,17.2,8.0,30.14,West,265,2.0,-999.0,68,-99.99,,,0.00,,weatherlink.com 1.10,2013-01-21 06:32:00,
2013-01-21 01:37:00,17.3,8.5,30.14,West,273,4.0,5.0,68,0.00,,,0.00,0,Wunderground v.1.15,2013-01-21 06:37:00,
2013-01-21 01:42:00,17.3,8.5,30.15,WNW,291,3.0,5.0,68,0.00,,,0.00,0,Wunderground v.1.15,2013-01-21 06:42:00,
2013-01-21 01:48:00,17.3,8.0,30.14,WSW,255,2.0,-999.0,68,-99.99,,,0.00,,weatherlink.com 1.10,2013-01-21 06:48:00,
2013-01-21 01:54:00,17.4,8.6,30.14,West,274,3.0,3.0,68,0.00,,,0.00,0,Wunderground v.1.15,2013-01-21 06:54:00,
2013-01-21 02:00:00,17.4,8.6,30.15,West,259,2.0,5.0,68,0.00,,,0.00,0,Wunderground v.1.15,2013-01-21 07:00:00,
2013-01-21 02:06:00,17.4,8.3,30.14,WNW,284,4.0,5.0,67,0.00,,,0.00,0,Wunderground v.1.15,2013-01-21 07:06:00,
2013-01-21 02:11:00,17.4,8.6,30.14,WSW,254,4.0,8.0,68,0.00,,,0.00,0,Wunderground v.1.15,2013-01-21 07:11:00,
2013-01-21 02:16:00,17.4,8.3,30.15,WNW,283,4.0,8.0,67,0.00,,,0.00,0,Wunderground v.1.15,2013-01-21 07:16:00,
2013-01-21 02:21:00,17.4,8.3,30.15,WSW,237,5.0,7.0,67,0.00,,,0.00,0,Wunderground v.1.15,2013-01-21 07:21:00,
2013-01-21 02:27:00,17.4,8.6,30.15,WNW,292,5.0,8.0,68,0.00,,,0.00,0,Wunderground v.1.15,2013-01-21 07:27:00,
2013-01-21 02:32:00,17.4,8.6,30.15,West,276,4.0,6.0,68,0.00,,,0.00,0,Wunderground v.1.15,2013-01-21 07:32:00,
2013-01-21 02:38:00,17.4,9.0,30.15,West,280,4.0,11.0,69,0.00,,,0.00,0,Wunderground v.1.15,2013-01-21 07:38:00,
2013-01-21 02:44:00,17.3,8.9,30.14,WNW,296,4.0,8.0,69,0.00,,,0.00,0,Wunderground v.1.15,2013-01-21 07:44:00,
2013-01-21 02:50:00,17.2,8.4,30.14,West,264,6.0,6.0,68,0.00,,,0.00,0,Wunderground v.1.15,2013-01-21 07:50:00,
2013-01-21 02:56:00,17.2,8.4,30.14,West,275,6.0,6.0,68,0.00,,,0.00,0,Wunderground v.1.15,2013-01-21 07:56:00,
2013-01-21 03:02:00,17.1,8.3,30.14,West,277,5.0,6.0,68,0.00,,,0.00,0,Wunderground v.1.15,2013-01-21 08:02:00,
2013-01-21 03:07:00,17.1,8.3,30.14,WSW,238,4.0,6.0,68,0.00,,,0.00,0,Wunderground v.1.15,2013-01-21 08:07:00,
2013-01-21 03:12:00,17.1,8.0,30.14,West,260,5.0,10.0,67,0.00,,,0.00,0,Wunderground v.1.15,2013-01-21 08:12:00,
2013-01-21 03:18:00,17.0,8.0,30.14,West,266,5.0,-999.0,67,-99.99,,,0.00,,weatherlink.com 1.10,2013-01-21 08:18:00,
2013-01-21 03:24:00,16.9,7.8,30.14,West,281,7.0,10.0,67,0.00,,,0.00,0,Wunderground v.1.15,2013-01-21 08:24:00,
2013-01-21 03:30:00,16.8,7.4,30.14,West,281,6.0,6.0,66,0.00,,,0.00,0,Wunderground v.1.15,2013-01-21 08:30:00,
2013-01-21 03:35:00,16.7,7.3,30.13,West,281,6.0,6.0,66,0.00,,,0.00,0,Wunderground v.1.15,2013-01-21 08:35:00,
2013-01-21 03:41:00,16.6,6.9,30.13,West,268,5.0,10.0,65,0.00,,,0.00,0,Wunderground v.1.15,2013-01-21 08:41:00,
2013-01-21 03:46:00,16.5,6.4,30.13,SW,229,7.0,14.0,64,0.00,,,0.00,0,Wunderground v.1.15,2013-01-21 08:46:00,
2013-01-21 03:52:00,16.4,6.3,30.12,WSW,245,8.0,9.0,64,0.00,,,0.00,0,Wunderground v.1.15,2013-01-21 08:52:00,
2013-01-21 03:58:00,16.4,6.3,30.12,West,269,6.0,9.0,64,0.00,,,0.00,0,Wunderground v.1.15,2013-01-21 08:58:00,
2013-01-21 04:03:00,16.4,6.3,30.12,West,269,5.0,7.0,64,0.00,,,0.00,0,Wunderground v.1.15,2013-01-21 09:03:00,
2013-01-21 04:09:00,16.3,6.2,30.12,West,264,6.0,9.0,64,0.00,,,0.00,0,Wunderground v.1.15,2013-01-21 09:09:00,
2013-01-21 04:15:00,16.3,6.2,30.12,West,274,7.0,10.0,64,0.00,,,0.00,0,Wunderground v.1.15,2013-01-21 09:15:00,
2013-01-21 04:21:00,16.2,6.1,30.12,West,263,7.0,12.0,64,0.00,,,0.00,0,Wunderground v.1.15,2013-01-21 09:21:00,
2013-01-21 04:27:00,16.1,6.1,30.12,West,275,6.0,12.0,64,0.00,,,0.00,0,Wunderground v.1.15,2013-01-21 09:27:00,
2013-01-21 04:32:00,16.1,6.1,30.11,NW,311,6.0,7.0,64,0.00,,,0.00,0,Wunderground v.1.15,2013-01-21 09:32:00,
2013-01-21 04:38:00,16.0,6.3,30.11,WSW,252,7.0,13.0,65,0.00,,,0.00,0,Wunderground v.1.15,2013-01-21 09:38:00,
2013-01-21 04:44:00,15.9,6.2,30.11,West,277,7.0,9.0,65,0.00,,,0.00,0,Wunderground v.1.15,2013-01-21 09:44:00,
2013-01-21 04:50:00,15.8,6.1,30.11,WNW,294,7.0,11.0,65,0.00,,,0.00,0,Wunderground v.1.15,2013-01-21 09:50:00,
2013-01-21 04:56:00,15.7,6.0,30.11,WNW,282,8.0,11.0,65,0.00,,,0.00,0,Wunderground v.1.15,2013-01-21 09:56:00,
2013-01-21 05:01:00,15.7,6.0,30.11,WNW,291,7.0,7.0,65,0.00,,,0.00,0,Wunderground v.1.15,2013-01-21 10:01:00,
2013-01-21 05:06:00,15.7,6.0,30.10,West,276,6.0,7.0,65,0.00,,,0.00,0,Wunderground v.1.15,2013-01-21 10:06:00,
2013-01-21 05:12:00,15.6,5.9,30.10,West,275,7.0,11.0,65,0.00,,,0.00,0,Wunderground v.1.15,2013-01-21 10:12:00,
2013-01-21 05:18:00,15.6,5.9,30.10,WNW,292,6.0,11.0,65,0.00,,,0.00,0,Wunderground v.1.15,2013-01-21 10:18:00,
2013-01-21 05:24:00,15.6,5.9,30.10,West,265,5.0,12.0,65,0.00,,,0.00,0,Wunderground v.1.15,2013-01-21 10:24:00,
2013-01-21 05:29:00,15.5,5.8,30.10,WNW,286,8.0,12.0,65,0.00,,,0.00,0,Wunderground v.1.15,2013-01-21 10:29:00,
2013-01-21 05:35:00,15.5,5.8,30.10,West,271,7.0,14.0,65,0.00,,,0.00,0,Wunderground v.1.15,2013-01-21 10:35:00,
2013-01-21 05:41:00,15.5,5.8,30.10,WSW,250,5.0,11.0,65,0.00,,,0.00,0,Wunderground v.1.15,2013-01-21 10:41:00,
2013-01-21 05:47:00,15.5,5.8,30.10,NW,320,6.0,12.0,65,0.00,,,0.00,0,Wunderground v.1.15,2013-01-21 10:47:00,
2013-01-21 05:52:00,15.4,5.7,30.10,WNW,295,8.0,8.0,65,0.00,,,0.00,0,Wunderground v.1.15,2013-01-21 10:52:00,
2013-01-21 05:58:00,15.3,5.3,30.10,WNW,296,8.0,15.0,64,0.00,,,0.00,0,Wunderground v.1.15,2013-01-21 10:58:00,
2013-01-21 06:04:00,15.3,4.9,30.10,West,267,9.0,11.0,63,0.00,,,0.00,0,Wunderground v.1.15,2013-01-21 11:04:00,
2013-01-21 06:09:00,15.2,4.9,30.10,West,269,9.0,11.0,63,0.00,,,0.00,0,Wunderground v.1.15,2013-01-21 11:09:00,
2013-01-21 06:15:00,15.2,4.9,30.09,WNW,291,9.0,12.0,63,0.00,,,0.00,0,Wunderground v.1.15,2013-01-21 11:15:00,
2013-01-21 06:20:00,15.1,4.8,30.10,WNW,298,9.0,9.0,63,0.00,,,0.00,0,Wunderground v.1.15,2013-01-21 11:20:00,
2013-01-21 06:26:00,15.1,4.8,30.10,West,273,7.0,9.0,63,0.00,,,0.00,0,Wunderground v.1.15,2013-01-21 11:26:00,
2013-01-21 06:31:00,15.1,4.8,30.10,West,273,6.0,11.0,63,0.00,,,0.00,0,Wunderground v.1.15,2013-01-21 11:31:00,
2013-01-21 06:37:00,15.1,4.1,30.10,West,260,9.0,15.0,61,0.00,,,0.00,0,Wunderground v.1.15,2013-01-21 11:37:00,
2013-01-21 06:42:00,15.1,4.1,30.10,WNW,293,9.0,13.0,61,0.00,,,0.00,0,Wunderground v.1.15,2013-01-21 11:42:00,
2013-01-21 06:47:00,15.1,4.4,30.10,WNW,283,7.0,13.0,62,0.00,,,0.00,0,Wunderground v.1.15,2013-01-21 11:47:00,
2013-01-21 06:53:00,15.0,4.3,30.10,WNW,290,7.0,12.0,62,0.00,,,0.00,0,Wunderground v.1.15,2013-01-21 11:53:00,
2013-01-21 06:59:00,15.0,4.3,30.10,WSW,251,9.0,12.0,62,0.00,,,0.00,0,Wunderground v.1.15,2013-01-21 11:59:00,
2013-01-21 07:05:00,15.0,4.3,30.10,WNW,293,9.0,9.0,62,0.00,,,0.00,0,Wunderground v.1.15,2013-01-21 12:05:00,
2013-01-21 07:10:00,14.9,4.9,30.10,WNW,298,8.0,14.0,64,0.00,,,0.00,0,Wunderground v.1.15,2013-01-21 12:10:00,
2013-01-21 07:16:00,15.0,5.3,30.10,West,268,7.0,14.0,65,0.00,,,0.00,0,Wunderground v.1.15,2013-01-21 12:16:00,
2013-01-21 07:22:00,14.9,5.6,30.10,NW,311,6.0,7.0,66,0.00,,,0.00,0,Wunderground v.1.15,2013-01-21 12:22:00,
2013-01-21 07:28:00,15.0,5.7,30.10,West,277,6.0,10.0,66,0.00,,,0.00,0,Wunderground v.1.15,2013-01-21 12:28:00,
2013-01-21 07:34:00,14.8,5.0,30.10,West,273,10.0,-999.0,66,-99.99,,,0.00,,weatherlink.com 1.10,2013-01-21 12:34:00,
2013-01-21 07:39:00,14.7,5.1,30.10,WSW,250,10.0,18.0,65,0.00,,,0.00,0,Wunderground v.1.15,2013-01-21 12:39:00,
2013-01-21 07:44:00,14.6,5.0,30.10,West,268,10.0,15.0,65,0.00,,,0.00,0,Wunderground v.1.15,2013-01-21 12:44:00,
2013-01-21 07:49:00,14.5,4.9,30.10,West,260,10.0,15.0,65,0.00,,,0.00,0,Wunderground v.1.15,2013-01-21 12:49:00,
2013-01-21 07:55:00,14.4,4.8,30.10,West,264,11.0,11.0,65,0.00,,,0.00,0,Wunderground v.1.15,2013-01-21 12:55:00,
2013-01-21 08:00:00,14.4,5.1,30.10,WNW,283,11.0,13.0,66,0.00,,,0.00,0,Wunderground v.1.15,2013-01-21 13:00:00,
2013-01-21 08:06:00,14.3,5.0,30.09,West,265,11.0,13.0,66,0.00,,,0.00,5,Wunderground v.1.15,2013-01-21 13:06:00,
2013-01-21 08:11:00,14.3,5.3,30.09,SW,230,10.0,11.0,67,0.00,,,0.00,11,Wunderground v.1.15,2013-01-21 13:11:00,
2013-01-21 08:16:00,14.3,5.3,30.09,West,260,8.0,11.0,67,0.00,,,0.00,16,Wunderground v.1.15,2013-01-21 13:16:00,
2013-01-21 08:22:00,14.2,5.2,30.09,SSW,202,8.0,11.0,67,0.00,,,0.00,25,Wunderground v.1.15,2013-01-21 13:22:00,
2013-01-21 08:28:00,14.1,5.5,30.09,WSW,254,9.0,19.0,68,0.00,,,0.00,30,Wunderground v.1.15,2013-01-21 13:28:00,
2013-01-21 08:33:00,14.0,5.0,30.09,West,259,10.0,-999.0,67,-99.99,,,0.00,,weatherlink.com 1.10,2013-01-21 13:33:00,
2013-01-21 08:38:00,14.0,5.1,30.09,West,277,9.0,14.0,67,0.00,,,0.00,37,Wunderground v.1.15,2013-01-21 13:38:00,
2013-01-21 08:44:00,14.0,5.4,30.09,West,273,8.0,12.0,68,0.00,,,0.00,42,Wunderground v.1.15,2013-01-21 13:44:00,
2013-01-21 08:50:00,14.0,5.4,30.09,West,263,9.0,9.0,68,0.00,,,0.00,54,Wunderground v.1.15,2013-01-21 13:50:00,
2013-01-21 08:55:00,14.0,5.4,30.09,West,281,10.0,13.0,68,0.00,,,0.00,63,Wunderground v.1.15,2013-01-21 13:55:00,
2013-01-21 09:00:00,14.1,5.8,30.09,NW,308,9.0,9.0,69,0.00,,,0.00,67,Wunderground v.1.15,2013-01-21 14:00:00,
2013-01-21 09:07:00,13.8,6.1,30.09,WSW,250,9.0,12.0,71,0.00,,,0.00,60,Wunderground v.1.15,2013-01-21 14:07:00,
2013-01-21 09:12:00,13.7,6.6,30.10,West,265,8.0,9.0,73,0.00,,,0.00,58,Wunderground v.1.15,2013-01-21 14:12:00,
2013-01-21 09:18:00,13.6,5.9,30.10,WSW,248,10.0,17.0,71,0.00,,,0.00,70,Wunderground v.1.15,2013-01-21 14:18:00,
2013-01-21 09:24:00,13.5,5.8,30.10,WSW,252,13.0,15.0,71,0.00,,,0.00,51,Wunderground v.1.15,2013-01-21 14:24:00,
2013-01-21 09:30:00,13.3,6.3,30.10,West,273,11.0,11.0,73,0.00,,,0.00,77,Wunderground v.1.15,2013-01-21 14:30:00,
2013-01-21 09:36:00,13.2,6.2,30.10,WNW,286,9.0,11.0,73,0.00,,,0.00,84,Wunderground v.1.15,2013-01-21 14:36:00,
2013-01-21 09:41:00,13.0,5.7,30.10,West,276,12.0,12.0,72,0.00,,,0.00,91,Wunderground v.1.15,2013-01-21 14:41:00,
2013-01-21 09:47:00,12.7,5.0,30.10,NW,304,13.0,-999.0,72,-99.99,,,0.00,,weatherlink.com 1.10,2013-01-21 14:47:00,
2013-01-21 09:52:00,12.6,5.3,30.11,West,267,13.0,16.0,72,0.00,,,0.00,86,Wunderground v.1.15,2013-01-21 14:52:00,
2013-01-21 09:58:00,12.4,5.1,30.11,West,272,13.0,16.0,72,0.00,,,0.00,93,Wunderground v.1.15,2013-01-21 14:58:00,
2013-01-21 10:04:00,12.5,4.9,30.11,West,280,12.0,21.0,71,0.00,,,0.00,100,Wunderground v.1.15,2013-01-21 15:04:00,
2013-01-21 10:09:00,12.6,4.7,30.11,WSW,249,12.0,21.0,70,0.00,,,0.00,151,Wunderground v.1.15,2013-01-21 15:09:00,
2013-01-21 10:15:00,12.8,4.9,30.11,West,272,11.0,19.0,70,0.00,,,0.00,149,Wunderground v.1.15,2013-01-21 15:15:00,
2013-01-21 10:21:00,13.0,4.4,30.11,West,273,9.0,16.0,68,0.00,,,0.00,243,Wunderground v.1.15,2013-01-21 15:21:00,
2013-01-21 10:27:00,13.0,4.1,30.10,West,269,12.0,16.0,67,0.00,,,0.00,330,Wunderground v.1.15,2013-01-21 15:27:00,
2013-01-21 10:32:00,13.0,4.0,30.10,WSW,257,18.0,-999.0,67,-99.99,,,0.00,,weatherlink.com 1.10,2013-01-21 15:32:00,
2013-01-21 10:38:00,12.9,3.7,30.10,WNW,286,14.0,20.0,66,0.00,,,0.00,420,Wunderground v.1.15,2013-01-21 15:38:00,
2013-01-21 10:44:00,13.3,3.7,30.10,WNW,286,12.0,13.0,65,0.00,,,0.00,450,Wunderground v.1.15,2013-01-21 15:44:00,
2013-01-21 10:50:00,13.4,3.8,30.10,WNW,284,13.0,13.0,65,0.00,,,0.00,352,Wunderground v.1.15,2013-01-21 15:50:00,
2013-01-21 10:55:00,13.5,4.2,30.10,West,272,13.0,17.0,66,0.00,,,0.00,318,Wunderground v.1.15,2013-01-21 15:55:00,
2013-01-21 11:00:00,13.2,3.6,30.10,West,271,12.0,12.0,65,0.00,,,0.00,135,Wunderground v.1.15,2013-01-21 16:00:00,
2013-01-21 11:06:00,13.1,2.9,30.11,West,268,12.0,16.0,63,0.00,,,0.00,148,Wunderground v.1.15,2013-01-21 16:06:00,
2013-01-21 11:12:00,13.2,3.3,30.11,NW,314,11.0,16.0,64,0.00,,,0.00,531,Wunderground v.1.15,2013-01-21 16:12:00,
2013-01-21 11:18:00,13.9,3.0,30.10,West,268,12.0,-999.0,62,-99.99,,,0.00,,weatherlink.com 1.10,2013-01-21 16:18:00,
2013-01-21 11:23:00,13.5,2.5,30.11,West,277,14.0,17.0,61,0.00,,,0.00,121,Wunderground v.1.15,2013-01-21 16:23:00,
2013-01-21 11:28:00,13.2,2.3,30.11,WNW,286,14.0,19.0,61,0.00,,,0.00,199,Wunderground v.1.15,2013-01-21 16:28:00,
2013-01-21 11:34:00,13.4,2.1,30.10,West,271,12.0,19.0,60,0.00,,,0.00,244,Wunderground v.1.15,2013-01-21 16:34:00,
2013-01-21 11:40:00,14.1,2.7,30.10,West,267,13.0,16.0,60,0.00,,,0.00,494,Wunderground v.1.15,2013-01-21 16:40:00,
2013-01-21 11:46:00,13.6,1.2,30.10,WNW,293,14.0,22.0,57,0.00,,,0.00,171,Wunderground v.1.15,2013-01-21 16:46:00,
2013-01-21 11:52:00,13.7,1.6,30.10,West,280,12.0,14.0,58,0.00,,,0.00,538,Wunderground v.1.15,2013-01-21 16:52:00,
2013-01-21 11:58:00,14.0,0.8,30.10,West,263,13.0,20.0,55,0.00,,,0.00,264,Wunderground v.1.15,2013-01-21 16:58:00,
2013-01-21 12:03:00,14.6,1.0,30.10,West,271,13.0,-999.0,54,-99.99,,,0.00,,weatherlink.com 1.10,2013-01-21 17:03:00,
2013-01-21 12:09:00,14.4,0.8,30.09,West,268,15.0,19.0,54,0.00,,,0.00,313,Wunderground v.1.15,2013-01-21 17:09:00,
2013-01-21 12:14:00,14.8,1.5,30.10,West,264,14.0,16.0,55,0.00,,,0.00,418,Wunderground v.1.15,2013-01-21 17:14:00,
2013-01-21 12:20:00,14.5,0.9,30.09,West,265,14.0,14.0,54,0.00,,,0.00,339,Wunderground v.1.15,2013-01-21 17:20:00,
2013-01-21 12:26:00,14.4,0.4,30.09,West,267,15.0,17.0,53,0.00,,,0.00,533,Wunderground v.1.15,2013-01-21 17:26:00,
2013-01-21 12:31:00,13.9,0.3,30.09,West,266,15.0,20.0,54,0.00,,,0.00,163,Wunderground v.1.15,2013-01-21 17:31:00,
2013-01-21 12:36:00,14.3,1.4,30.09,WSW,242,14.0,25.0,56,0.00,,,0.00,329,Wunderground v.1.15,2013-01-21 17:36:00,
2013-01-21 12:42:00,14.6,1.7,30.09,SW,233,14.0,16.0,56,0.00,,,0.00,650,Wunderground v.1.15,2013-01-21 17:42:00,
2013-01-21 12:48:00,14.3,2.2,30.09,WNW,286,14.0,20.0,58,0.00,,,0.00,489,Wunderground v.1.15,2013-01-21 17:48:00,
2013-01-21 12:53:00,14.5,2.4,30.08,WNW,282,13.0,19.0,58,0.00,,,0.00,575,Wunderground v.1.15,2013-01-21 17:53:00,
2013-01-21 12:59:00,15.2,0.7,30.08,WNW,283,12.0,19.0,52,0.00,,,0.00,554,Wunderground v.1.15,2013-01-21 17:59:00,
2013-01-21 13:05:00,14.4,1.9,30.08,West,278,12.0,17.0,57,0.00,,,0.00,111,Wunderground v.1.15,2013-01-21 18:05:00,
2013-01-21 13:10:00,13.9,3.6,30.08,WNW,285,13.0,16.0,63,0.00,,,0.00,93,Wunderground v.1.15,2013-01-21 18:10:00,
2013-01-21 13:16:00,12.8,4.9,30.08,West,275,13.0,16.0,70,0.00,,,0.00,192,Wunderground v.1.15,2013-01-21 18:16:00,
2013-01-21 13:22:00,13.5,4.9,30.07,WNW,295,11.0,17.0,68,0.00,,,0.00,540,Wunderground v.1.15,2013-01-21 18:22:00,
2013-01-21 13:28:00,14.5,3.1,30.07,West,265,11.0,18.0,60,0.00,,,0.00,534,Wunderground v.1.15,2013-01-21 18:28:00,
2013-01-21 13:33:00,15.1,3.0,30.07,West,276,13.0,23.0,58,0.00,,,0.00,559,Wunderground v.1.15,2013-01-21 18:33:00,
2013-01-21 13:39:00,14.8,2.7,30.07,West,281,13.0,23.0,58,0.00,,,0.00,265,Wunderground v.1.15,2013-01-21 18:39:00,
2013-01-21 13:44:00,14.0,3.4,30.07,WNW,298,13.0,14.0,62,0.00,,,0.00,77,Wunderground v.1.15,2013-01-21 18:44:00,
2013-01-21 13:50:00,13.7,2.0,30.07,West,275,12.0,14.0,59,0.00,,,0.00,107,Wunderground v.1.15,2013-01-21 18:50:00,
2013-01-21 13:56:00,13.6,3.3,30.07,West,273,12.0,16.0,63,0.00,,,0.00,107,Wunderground v.1.15,2013-01-21 18:56:00,
2013-01-21 14:01:00,13.1,3.5,30.07,WNW,299,12.0,14.0,65,0.00,,,0.00,65,Wunderground v.1.15,2013-01-21 19:01:00,
2013-01-21 14:07:00,13.2,3.3,30.08,WNW,284,12.0,14.0,64,0.00,,,0.00,91,Wunderground v.1.15,2013-01-21 19:07:00,
2013-01-21 14:13:00,13.5,4.2,30.08,WSW,254,12.0,20.0,66,0.00,,,0.00,199,Wunderground v.1.15,2013-01-21 19:13:00,
2013-01-21 14:19:00,12.7,5.4,30.08,West,275,14.0,20.0,72,0.00,,,0.00,142,Wunderground v.1.15,2013-01-21 19:19:00,
2013-01-21 14:24:00,13.2,5.6,30.08,West,277,12.0,15.0,71,0.00,,,0.00,519,Wunderground v.1.15,2013-01-21 19:24:00,
2013-01-21 14:29:00,13.9,4.6,30.08,West,279,10.0,21.0,66,0.00,,,0.00,223,Wunderground v.1.15,2013-01-21 19:29:00,
2013-01-21 14:35:00,12.8,5.8,30.08,WNW,291,14.0,19.0,73,0.00,,,0.00,102,Wunderground v.1.15,2013-01-21 19:35:00,
2013-01-21 14:41:00,12.3,6.5,30.08,NW,324,11.0,12.0,77,0.00,,,0.00,146,Wunderground v.1.15,2013-01-21 19:41:00,
2013-01-21 14:47:00,12.8,7.0,30.09,WNW,291,6.0,-999.0,78,-99.99,,,0.00,,weatherlink.com 1.10,2013-01-21 19:47:00,
2013-01-21 14:52:00,12.7,6.9,30.09,West,280,12.0,12.0,77,0.00,,,0.00,118,Wunderground v.1.15,2013-01-21 19:52:00,
2013-01-21 14:58:00,12.6,6.8,30.09,West,281,12.0,15.0,77,0.00,,,0.00,455,Wunderground v.1.15,2013-01-21 19:58:00,
2013-01-21 15:04:00,13.1,6.4,30.09,West,267,10.0,11.0,74,0.00,,,0.00,227,Wunderground v.1.15,2013-01-21 20:04:00,
2013-01-21 15:09:00,13.0,4.7,30.10,West,271,12.0,20.0,69,0.00,,,0.00,162,Wunderground v.1.15,2013-01-21 20:09:00,
2013-01-21 15:15:00,13.4,4.5,30.10,West,261,14.0,14.0,67,0.00,,,0.00,76,Wunderground v.1.15,2013-01-21 20:15:00,
2013-01-21 15:21:00,13.0,2.4,30.10,West,278,12.0,12.0,62,0.00,,,0.00,295,Wunderground v.1.15,2013-01-21 20:21:00,
2013-01-21 15:27:00,13.4,3.1,30.10,West,269,12.0,18.0,63,0.00,,,0.00,366,Wunderground v.1.15,2013-01-21 20:27:00,
2013-01-21 15:34:00,12.8,3.2,30.10,WNW,292,15.0,17.0,65,0.00,,,0.00,81,Wunderground v.1.15,2013-01-21 20:34:00,
2013-01-21 15:40:00,12.1,2.6,30.10,WNW,283,14.0,14.0,65,0.00,,,0.00,79,Wunderground v.1.15,2013-01-21 20:40:00,
2013-01-21 15:46:00,12.1,3.2,30.11,WNW,282,12.0,16.0,67,0.00,,,0.00,49,Wunderground v.1.15,2013-01-21 20:46:00,
2013-01-21 15:52:00,12.3,3.1,30.11,WNW,292,11.0,17.0,66,0.00,,,0.00,158,Wunderground v.1.15,2013-01-21 20:52:00,
2013-01-21 15:58:00,12.5,2.3,30.11,WNW,290,12.0,20.0,63,0.00,,,0.00,118,Wunderground v.1.15,2013-01-21 20:58:00,
2013-01-21 16:04:00,12.5,1.9,30.11,NW,317,12.0,19.0,62,0.00,,,0.00,107,Wunderground v.1.15,2013-01-21 21:04:00,
2013-01-21 16:10:00,12.1,0.9,30.12,West,273,12.0,12.0,60,0.00,,,0.00,84,Wunderground v.1.15,2013-01-21 21:10:00,
2013-01-21 16:16:00,12.2,0.2,30.12,WNW,284,13.0,17.0,58,0.00,,,0.00,77,Wunderground v.1.15,2013-01-21 21:16:00,
2013-01-21 16:22:00,11.9,-0.1,30.12,WNW,283,14.0,17.0,58,0.00,,,0.00,46,Wunderground v.1.15,2013-01-21 21:22:00,
2013-01-21 16:28:00,11.8,-0.2,30.12,WNW,289,13.0,17.0,58,0.00,,,0.00,56,Wunderground v.1.15,2013-01-21 21:28:00,
2013-01-21 16:33:00,11.7,-0.6,30.13,WNW,284,11.0,19.0,57,0.00,,,0.00,74,Wunderground v.1.15,2013-01-21 21:33:00,
2013-01-21 16:39:00,11.0,2.5,30.13,NW,323,11.0,19.0,68,0.00,,,0.00,49,Wunderground v.1.15,2013-01-21 21:39:00,
2013-01-21 16:45:00,10.2,3.6,30.13,NW,326,11.0,13.0,74,0.00,,,0.00,33,Wunderground v.1.15,2013-01-21 21:45:00,
2013-01-21 16:51:00,9.9,3.8,30.14,West,261,11.0,12.0,76,0.00,,,0.00,32,Wunderground v.1.15,2013-01-21 21:51:00,
2013-01-21 16:56:00,9.9,3.8,30.13,NW,326,9.0,12.0,76,0.00,,,0.00,33,Wunderground v.1.15,2013-01-21 21:56:00,
2013-01-21 17:02:00,9.9,3.0,30.14,WNW,284,13.0,-999.0,73,-99.99,,,0.00,,weatherlink.com 1.10,2013-01-21 22:02:00,
2013-01-21 17:07:00,9.9,1.8,30.14,West,261,10.0,14.0,69,0.00,,,0.00,28,Wunderground v.1.15,2013-01-21 22:07:00,
2013-01-21 17:13:00,9.8,1.0,30.14,West,281,12.0,18.0,67,0.00,,,0.00,18,Wunderground v.1.15,2013-01-21 22:13:00,
2013-01-21 17:18:00,9.4,0.0,30.14,WNW,300,5.0,-999.0,67,-99.99,,,0.00,,weatherlink.com 1.10,2013-01-21 22:18:00,
2013-01-21 17:23:00,9.4,0.6,30.14,WNW,287,10.0,13.0,67,0.00,,,0.00,14,Wunderground v.1.15,2013-01-21 22:23:00,
2013-01-21 17:28:00,9.3,-0.1,30.14,NW,317,10.0,13.0,65,0.00,,,0.00,12,Wunderground v.1.15,2013-01-21 22:28:00,
2013-01-21 17:34:00,9.3,-0.8,30.14,West,275,10.0,16.0,63,0.00,,,0.00,9,Wunderground v.1.15,2013-01-21 22:34:00,
2013-01-21 17:40:00,9.3,-0.8,30.15,WNW,287,10.0,10.0,63,0.00,,,0.00,7,Wunderground v.1.15,2013-01-21 22:40:00,
2013-01-21 17:46:00,9.3,-0.8,30.15,WNW,289,9.0,12.0,63,0.00,,,0.00,5,Wunderground v.1.15,2013-01-21 22:46:00,
2013-01-21 17:52:00,9.3,-0.8,30.15,WNW,299,10.0,12.0,63,0.00,,,0.00,0,Wunderground v.1.15,2013-01-21 22:52:00,
2013-01-21 17:57:00,9.3,-1.4,30.15,WNW,302,9.0,12.0,61,0.00,,,0.00,0,Wunderground v.1.15,2013-01-21 22:57:00,
2013-01-21 18:02:00,9.2,-2.0,30.16,West,280,11.0,-999.0,60,-99.99,,,0.00,,weatherlink.com 1.10,2013-01-21 23:02:00,
2013-01-21 18:08:00,9.1,-2.3,30.16,WNW,292,10.0,13.0,59,0.00,,,0.00,0,Wunderground v.1.15,2013-01-21 23:08:00,
2013-01-21 18:13:00,8.9,-2.2,30.16,WNW,288,11.0,17.0,60,0.00,,,0.00,0,Wunderground v.1.15,2013-01-21 23:13:00,
2013-01-21 18:19:00,8.7,-2.0,30.16,WNW,287,12.0,17.0,61,0.00,,,0.00,0,Wunderground v.1.15,2013-01-21 23:19:00,
2013-01-21 18:24:00,8.6,-1.8,30.16,WNW,287,11.0,14.0,62,0.00,,,0.00,0,Wunderground v.1.15,2013-01-21 23:24:00,
2013-01-21 18:30:00,8.5,-1.5,30.16,West,268,10.0,10.0,63,0.00,,,0.00,0,Wunderground v.1.15,2013-01-21 23:30:00,
2013-01-21 18:36:00,8.3,-1.1,30.16,WNW,288,10.0,10.0,65,0.00,,,0.00,0,Wunderground v.1.15,2013-01-21 23:36:00,
2013-01-21 18:42:00,8.3,-0.7,30.16,West,275,11.0,17.0,66,0.00,,,0.00,0,Wunderground v.1.15,2013-01-21 23:42:00,
2013-01-21 18:47:00,8.2,-0.5,30.16,West,263,10.0,17.0,67,0.00,,,0.00,0,Wunderground v.1.15,2013-01-21 23:47:00,
2013-01-21 18:52:00,8.1,0.0,30.16,West,271,10.0,10.0,69,0.00,,,0.00,0,Wunderground v.1.15,2013-01-21 23:52:00,
2013-01-21 18:58:00,8.0,0.2,30.16,West,273,10.0,16.0,70,0.00,,,0.00,0,Wunderground v.1.15,2013-01-21 23:58:00,
2013-01-21 19:03:00,7.9,0.0,30.16,NW,304,3.0,-999.0,70,-99.99,,,0.00,,weatherlink.com 1.10,2013-01-22 00:03:00,
2013-01-21 19:08:00,7.9,0.1,30.16,SW,218,7.0,13.0,70,0.00,,,0.00,0,Wunderground v.1.15,2013-01-22 00:08:00,
2013-01-21 19:13:00,7.9,0.1,30.17,West,280,8.0,13.0,70,0.00,,,0.00,0,Wunderground v.1.15,2013-01-22 00:13:00,
2013-01-21 19:19:00,7.9,-0.2,30.17,West,276,10.0,13.0,69,0.00,,,0.00,0,Wunderground v.1.15,2013-01-22 00:19:00,
2013-01-21 19:25:00,7.9,-0.8,30.17,WSW,257,10.0,15.0,67,0.00,,,0.00,0,Wunderground v.1.15,2013-01-22 00:25:00,
2013-01-21 19:31:00,7.8,-0.9,30.17,WSW,257,8.0,12.0,67,0.00,,,0.00,0,Wunderground v.1.15,2013-01-22 00:31:00,
2013-01-21 19:37:00,7.8,-1.9,30.17,WNW,299,10.0,13.0,64,0.00,,,0.00,0,Wunderground v.1.15,2013-01-22 00:37:00,
2013-01-21 19:43:00,7.7,-2.0,30.17,WSW,243,9.0,11.0,64,0.00,,,0.00,0,Wunderground v.1.15,2013-01-22 00:43:00,
2013-01-21 19:49:00,7.6,-2.4,30.17,WNW,292,9.0,15.0,63,0.00,,,0.00,0,Wunderground v.1.15,2013-01-22 00:49:00,
2013-01-21 19:55:00,7.6,-2.7,30.17,West,280,8.0,12.0,62,0.00,,,0.00,0,Wunderground v.1.15,2013-01-22 00:55:00,
2013-01-21 20:00:00,7.5,-2.8,30.17,WSW,251,9.0,14.0,62,0.00,,,0.00,0,Wunderground v.1.15,2013-01-22 01:00:00,
2013-01-21 20:06:00,7.5,-3.2,30.17,WNW,295,11.0,18.0,61,0.00,,,0.00,0,Wunderground v.1.15,2013-01-22 01:06:00,
2013-01-21 20:12:00,7.5,-3.5,30.17,WNW,286,12.0,12.0,60,0.00,,,0.00,0,Wunderground v.1.15,2013-01-22 01:12:00,
2013-01-21 20:18:00,7.4,-3.6,30.17,West,267,10.0,12.0,60,0.00,,,0.00,0,Wunderground v.1.15,2013-01-22 01:18:00,
2013-01-21 20:24:00,7.4,-3.6,30.18,West,265,12.0,13.0,60,0.00,,,0.00,0,Wunderground v.1.15,2013-01-22 01:24:00,
2013-01-21 20:30:00,7.3,-3.7,30.18,West,263,12.0,18.0,60,0.00,,,0.00,0,Wunderground v.1.15,2013-01-22 01:30:00,
2013-01-21 20:35:00,7.3,-3.7,30.18,West,277,11.0,18.0,60,0.00,,,0.00,0,Wunderground v.1.15,2013-01-22 01:35:00,
2013-01-21 20:41:00,7.2,-3.8,30.18,WNW,298,9.0,11.0,60,0.00,,,0.00,0,Wunderground v.1.15,2013-01-22 01:41:00,
2013-01-21 20:46:00,7.1,-3.9,30.18,SW,225,9.0,11.0,60,0.00,,,0.00,0,Wunderground v.1.15,2013-01-22 01:46:00,
2013-01-21 20:52:00,7.1,-3.9,30.18,WSW,257,10.0,14.0,60,0.00,,,0.00,0,Wunderground v.1.15,2013-01-22 01:52:00,
2013-01-21 20:58:00,7.0,-4.0,30.18,West,273,10.0,18.0,60,0.00,,,0.00,0,Wunderground v.1.15,2013-01-22 01:58:00,
2013-01-21 21:03:00,7.1,-4.0,30.18,West,260,16.0,-999.0,60,-99.99,,,0.00,,weatherlink.com 1.10,2013-01-22 02:03:00,
2013-01-21 21:09:00,7.0,-4.0,30.18,WSW,246,12.0,14.0,60,0.00,,,0.00,0,Wunderground v.1.15,2013-01-22 02:09:00,
2013-01-21 21:15:00,6.9,-4.1,30.19,West,269,10.0,12.0,60,0.00,,,0.00,0,Wunderground v.1.15,2013-01-22 02:15:00,
2013-01-21 21:20:00,6.9,-4.1,30.19,West,279,10.0,10.0,60,0.00,,,0.00,0,Wunderground v.1.15,2013-01-22 02:20:00,
2013-01-21 21:26:00,6.9,-4.4,30.19,West,269,10.0,14.0,59,0.00,,,0.00,0,Wunderground v.1.15,2013-01-22 02:26:00,
2013-01-21 21:31:00,6.9,-4.4,30.19,WNW,287,10.0,10.0,59,0.00,,,0.00,0,Wunderground v.1.15,2013-01-22 02:31:00,
2013-01-21 21:37:00,6.9,-4.4,30.19,West,265,11.0,15.0,59,0.00,,,0.00,0,Wunderground v.1.15,2013-01-22 02:37:00,
2013-01-21 21:43:00,6.9,-4.8,30.19,West,261,12.0,12.0,58,0.00,,,0.00,0,Wunderground v.1.15,2013-01-22 02:43:00,
2013-01-21 21:49:00,6.8,-4.9,30.19,SW,217,11.0,13.0,58,0.00,,,0.00,0,Wunderground v.1.15,2013-01-22 02:49:00,
2013-01-21 21:55:00,6.8,-4.9,30.20,WNW,296,10.0,14.0,58,0.00,,,0.00,0,Wunderground v.1.15,2013-01-22 02:55:00,
2013-01-21 22:00:00,6.8,-4.9,30.20,West,261,10.0,11.0,58,0.00,,,0.00,0,Wunderground v.1.15,2013-01-22 03:00:00,
2013-01-21 22:06:00,6.7,-5.0,30.20,WSW,249,10.0,16.0,58,0.00,,,0.00,0,Wunderground v.1.15,2013-01-22 03:06:00,
2013-01-21 22:12:00,6.7,-5.0,30.20,SW,234,10.0,17.0,58,0.00,,,0.00,0,Wunderground v.1.15,2013-01-22 03:12:00,
2013-01-21 22:18:00,6.7,-5.0,30.20,West,275,12.0,17.0,58,0.00,,,0.00,0,Wunderground v.1.15,2013-01-22 03:18:00,
2013-01-21 22:24:00,6.7,-4.6,30.20,West,275,11.0,15.0,59,0.00,,,0.00,0,Wunderground v.1.15,2013-01-22 03:24:00,
2013-01-21 22:29:00,6.6,-4.7,30.20,WNW,284,9.0,15.0,59,0.00,,,0.00,0,Wunderground v.1.15,2013-01-22 03:29:00,
2013-01-21 22:35:00,6.5,-4.5,30.20,West,273,8.0,13.0,60,0.00,,,0.00,0,Wunderground v.1.15,2013-01-22 03:35:00,
2013-01-21 22:41:00,6.5,-4.5,30.20,West,274,10.0,13.0,60,0.00,,,0.00,0,Wunderground v.1.15,2013-01-22 03:41:00,
2013-01-21 22:47:00,6.5,-4.5,30.20,WNW,299,11.0,21.0,60,0.00,,,0.00,0,Wunderground v.1.15,2013-01-22 03:47:00,
2013-01-21 22:52:00,6.4,-4.5,30.20,WSW,241,11.0,15.0,60,0.00,,,0.00,0,Wunderground v.1.15,2013-01-22 03:52:00,
2013-01-21 22:58:00,6.3,-4.3,30.20,West,274,10.0,16.0,61,0.00,,,0.00,0,Wunderground v.1.15,2013-01-22 03:58:00,
2013-01-21 23:04:00,6.3,-4.3,30.21,West,263,10.0,15.0,61,0.00,,,0.00,0,Wunderground v.1.15,2013-01-22 04:04:00,
2013-01-21 23:09:00,6.3,-4.3,30.21,WNW,303,9.0,16.0,61,0.00,,,0.00,0,Wunderground v.1.15,2013-01-22 04:09:00,
2013-01-21 23:15:00,6.2,-4.4,30.21,WNW,288,8.0,13.0,61,0.00,,,0.00,0,Wunderground v.1.15,2013-01-22 04:15:00,
2013-01-21 23:21:00,6.2,-4.4,30.21,WNW,283,10.0,12.0,61,0.00,,,0.00,0,Wunderground v.1.15,2013-01-22 04:21:00,
2013-01-21 23:27:00,6.2,-4.4,30.21,West,280,11.0,15.0,61,0.00,,,0.00,0,Wunderground v.1.15,2013-01-22 04:27:00,
2013-01-21 23:33:00,6.1,-5.0,30.21,WSW,256,11.0,-999.0,61,-99.99,,,0.00,,weatherlink.com 1.10,2013-01-22 04:33:00,
2013-01-21 23:38:00,6.1,-4.5,30.21,WNW,282,11.0,19.0,61,0.00,,,0.00,0,Wunderground v.1.15,2013-01-22 04:38:00,
2013-01-21 23:44:00,6.1,-4.5,30.21,WNW,288,11.0,20.0,61,0.00,,,0.00,0,Wunderground v.1.15,2013-01-22 04:44:00,
2013-01-21 23:49:00,6.0,-4.6,30.21,West,280,9.0,20.0,61,0.00,,,0.00,0,Wunderground v.1.15,2013-01-22 04:49:00,
2013-01-21 23:55:00,6.0,-4.6,30.21,WNW,288,8.0,14.0,61,0.00,,,0.00,0,Wunderground v.1.15,2013-01-22 04:55:00,